SPACEBEE-79 (47712 NORAD) Tracking and Keplerian Element Data
This shows tracking and keplerian element data for the satellite.
Feedback or suggestion? Click here.
Element | Value |
Catalog | 47712 |
Name | SPACEBEE-79 |
Epoch Orbit | 617 |
Epoch Day | 99.89680853 |
Epoch Year | 2021 |
RAAN | 174.837 |
Inclination | 97.4562 |
Eccentricity | 0.0011869 |
Argument of Perigee | 147.629 |
Mean Anonmoly | 212.5677 |
Mean Motion | 15.21482409 |
Decay Rate | 4.486E-05 |
L1 | 1 47712U 21015P 21099.89680853 .00004486 00000-0 20226-3 0 9995 |
L2 | 2 47712 97.4562 174.8370 0011869 147.6290 212.5677 15.21482409 6170 |
Live tracking and technical data element details for SPACEBEE-79 (NORAD 47712). SPACEBEE-79 can be tracked NOW for your location showing map with azimuth and elevation plus other details from your city location.
Track the satellite on the map from your city or location and see movement details for azimuth, elevation, latitude, longitude, range, height, and movement on the map or in text.
IsCatalogInMostPopularTable: catalog: 47712, numindb: 9
Update: records affected: 1
GetName: 47712 SPACEBEE-79
Hit Count: updated at: Sat, 10 Apr 2021 18:53:03 GMT